loading
|

THOR ABLESTAR DEB, 138

Orbit data source: Space-Track

THOR ABLESTAR DEB, 138 is space debris in LEO originally from a launch on Thu, 29 Jun 1961 UTC launched from the Air Force Eastern Test Range (AFETR). Debris objects in space refer to the collection of defunct objects orbiting the Earth. Examples of debris include non-operational satellites, rocket bodies, and fragments generated from explosions, collisions, or faulty payload assembly.

Loading next visibility...
Loading greatness...
THOR ABLESTAR DEB details
Identifier
138, 1961-015Y
Orbit
LEO
Last TLE update1 day ago
Origin
Flag of USUSAF SSD (US)
ManufacturerUnknown
Mission statusUnknown
MissionUnknown
Bus & MotorUnknown
MassUnknown
Launch date (UTC)
1961-06-29 (63 years ago)
Launch vehicleUnknown
Launch site
Air Force Eastern Test Range (AFETR)
Object type
Payload
Rocket body
Debris
Radar Cross SectionSmall (<0.1 m²)

Expand to show TLE details & history

TLE from 1 day ago
0 THOR ABLESTAR DEB
1 00138U 61015Y   24250.43069184  .00001982  00000-0  13050-2 0  9994
2 00138  67.1526 258.1827 0038857 266.5840  93.0803 14.03442650211743
Epoch: 2024-09-06T10:20Z
Definitive object data (Epoch: 2024-09-06T10:20:11.774Z)
Latitude-0.00005°
Longitude117.13029°
Altitude885.639 km
Speed7.409 km/s
True Right ascension17h 12m 43s
True Declination0° 00' 00"
Sunlit
Object was in daylight at TLE epoch
Predictive object data (real-time)
Latitude-2.66157°
Longitude112.86397°
Altitude885.087 km
Speed7.41 km/s
Apparent Right ascension18h 37m 18s
Apparent Declination-23° 05' 19"
Sunlit
Object is in daylight
Predictive observer data (real-time)
Local Sidereal Time09:15:08
Azimuth75.155° E
Elevation-52.785°
Doppler factor1
Orbital elements
Apogee908.445 km
Perigee852.038 km
Semi-major axis7,258.379 km
Eccentricity0.0038857
Inclination67.1526°
RAAN258.1827°
Arg. of periapsis266.584°
True anomaly93.5248°
Mean anomaly93.0803°
Eccentric anomaly93.30256°
Mean motion3.50981 °/min
BSTAR0.001305
Period102.57 mins
No data available

THOR ABLESTAR DEB Visibility forecast

Observer location: 39.9160978°, -105.1181434

THOR ABLESTAR DEB is not visible in the next 10 days
Span
Click to sort rows by Start time (UTC) header in descending order
Start Az.
Max El. time (UTC)
Max El. Az.
Max El.
End time (UTC)
End Az.